Starlink 30899

operational
NORAD ID: 58420 Int'l Des: 2023-180 Owner: SPXS Country: US Constellation: starlink
LEOCIRCULAR

Über Starlink 30899

Beschreibung wird geladen...

Live-Position

3D-Globus wird geladen...

Nächste Überflüge

Höhenverlauf

Altitude vs Time

uPlot chart will show altitude changes over time

Zweizeiliger Elementsatz

1 58420U 23180U 25300.71447834 .00000724 00000-0 68690-4 0 9997
2 58420 43.0044 58.4484 0001483 270.0017 90.0656 15.02537396107478
Epoch: 27. Okt. 2025 • Age: 21 hours

Aktueller Status

Höhe 560.4 km
Geschwindigkeit 7.59 km/s
Subsatellitenpunkt 30.38°N, 156.28°W
Startdatum 22. Nov. 2023
Alter 1.9 years
Typ internet

Technische Details

Klassifizierung Payload
Masse 730.00 kg
Trockenmasse 700.00 kg
Gesamtmasse 730.00 kg
Länge 0.30 m
Durchmesser 4.10 m
Spannweite 29.00 m
Form Box + pan
Hersteller SPXS
Bus-Typ Starlink V2M
Phasenstatus In Orbit
Besitzer/Staat SPXS/US

Große Konstellationen

Loading constellations...